This is the latest recevied weather packets stored in our database for station/object 4S6DRJ-13. If no packets are shown the sender has not sent any weather packets the latest 1 day(s).
| Time | Temp. | Humidity | Pressure | Rain* | Wind** | Luminosity | Snow |
|---|---|---|---|---|---|---|---|
| 1778137670 | 32.78° C | 65% | 1004.2 hPa | 0 mm | 2.68 m/s, 10° | 1105 W/m² | - |
| 1778137365 | 32.78° C | 64% | 1004.2 hPa | 0 mm | 1.79 m/s, 225° | 1112 W/m² | - |
| 1778137243 | 32.78° C | 64% | 1004.1 hPa | 0 mm | 0.89 m/s, 227° | 1111 W/m² | - |
| 1778137120 | 32.78° C | 67% | 1004.3 hPa | 0 mm | 2.68 m/s, 285° | 1111 W/m² | - |
| 1778136999 | 32.78° C | 66% | 1004.2 hPa | 0 mm | 1.79 m/s, 230° | 1112 W/m² | - |
| 1778136938 | 32.78° C | 67% | 1004.2 hPa | 0 mm | 1.79 m/s, 315° | 1113 W/m² | - |
| 1778136510 | 32.78° C | 64% | 1004.4 hPa | 0 mm | 2.24 m/s, 268° | 1113 W/m² | - |
| 1778136450 | 32.78° C | 65% | 1004.4 hPa | 0 mm | 1.79 m/s, 346° | 1114 W/m² | - |
| 1778136389 | 33.33° C | 63% | 1004.4 hPa | 0 mm | 1.79 m/s, 274° | 1112 W/m² | - |
| 1778136266 | 33.33° C | 63% | 1004.5 hPa | 0 mm | 1.79 m/s, 283° | 1114 W/m² | - |
| 1778136205 | 33.33° C | 65% | 1004.3 hPa | 0 mm | 1.34 m/s, 337° | 1114 W/m² | - |
| 1778136145 | 32.78° C | 65% | 1004.4 hPa | 0 mm | 0.89 m/s, 184° | 1113 W/m² | - |
| 1778136083 | 32.78° C | 65% | 1004.4 hPa | 0 mm | 0.89 m/s, 349° | 1113 W/m² | - |
| 1778136022 | 33.33° C | 65% | 1004.4 hPa | 0 mm | 1.34 m/s, 220° | 1113 W/m² | - |
| 1778135900 | 33.33° C | 65% | 1004.3 hPa | 0 mm | 2.68 m/s, 209° | 1112 W/m² | - |
| 1778135779 | 33.33° C | 67% | 1004.4 hPa | 0 mm | 0 m/s | 1110 W/m² | - |
| 1778135595 | 32.78° C | 67% | 1004.3 hPa | 0 mm | 1.34 m/s, 330° | 1114 W/m² | - |
| 1778135534 | 32.78° C | 66% | 1004.4 hPa | 0 mm | 3.58 m/s, 224° | 1114 W/m² | - |
| 1778135473 | 32.78° C | 66% | 1004.3 hPa | 0 mm | 1.34 m/s, 348° | 1114 W/m² | - |
| 1778135351 | 32.78° C | 66% | 1004.5 hPa | 0 mm | 1.34 m/s, 288° | 1116 W/m² | - |
| 1778135168 | 33.33° C | 66% | 1004.6 hPa | 0 mm | 1.79 m/s, 142° | 811 W/m² | - |
| 1778135108 | 33.33° C | 65% | 1004.5 hPa | 0 mm | 0.89 m/s, 140° | 750 W/m² | - |
| 1778135046 | 33.33° C | 66% | 1004.4 hPa | 0 mm | 2.24 m/s, 277° | 1102 W/m² | - |
| 1778134619 | 32.78° C | 67% | 1004.5 hPa | 0 mm | 1.79 m/s, 194° | 1118 W/m² | - |
| 1778134558 | 32.78° C | 67% | 1004.4 hPa | 0 mm | 0.89 m/s, 308° | 1119 W/m² | - |
* Rain latest hour (hover to see other rain measurements)
** Current wind speed in m/s (hover to see current wind gust speed)